Date,TemperatureHighF,TemperatureAvgF,TemperatureLowF,DewpointHighF,DewpointAvgF,DewpointLowF,HumidityHigh,HumidityAvg,HumidityLow,PressureMaxIn,PressureMinIn,WindSpeedMaxMPH,WindSpeedAvgMPH,GustSpeedMaxMPH,PrecipitationSumIn
2013-3-1,34.9,32.9,31.7,32.1,31.0,29.9,96,93,85,29.63,29.49,12,1,12,0.02
2013-3-2,42.3,34.5,30.8,34.0,32.0,30.0,98,91,65,29.61,29.55,14,1,14,0.15
2013-3-3,41.7,36.2,32.6,36.2,32.4,27.6,98,87,72,29.57,29.48,10,1,10,0.14
2013-3-4,34.1,32.3,30.3,30.5,27.9,25.1,93,84,76,29.64,29.45,18,3,18,0.05
2013-3-5,44.9,37.6,31.0,35.4,33.4,29.2,94,85,67,30.08,29.64,15,2,15,0.06
2013-3-6,38.9,35.4,32.5,33.9,30.4,27.3,96,82,68,30.21,30.08,30,6,30,0.01
2013-3-7,36.8,34.2,30.8,28.6,26.5,25.3,91,73,64,30.17,30.03,24,5,24,0.00
2013-3-8,47.0,36.8,29.5,28.8,24.7,21.5,94,64,37,30.15,29.98,24,4,24,0.05
2013-3-9,47.9,35.5,25.7,30.2,25.0,19.0,93,68,32,30.34,30.15,17,2,17,0.00
2013-3-10,38.2,31.6,22.4,32.2,27.4,21.0,100,85,72,30.39,30.27,11,1,11,0.00
2013-3-11,42.4,39.1,35.6,40.5,36.1,32.1,98,89,81,30.29,30.12,16,2,16,0.00
2013-3-12,47.2,44.6,41.6,46.7,43.2,39.7,98,95,91,30.14,29.71,21,3,21,0.67
2013-3-13,48.7,43.2,29.6,47.5,39.3,27.8,99,87,64,29.71,29.62,18,1,18,0.02
2013-3-14,41.6,31.4,22.0,30.1,24.4,8.7,97,77,47,29.70,29.57,18,2,18,0.00
2013-3-15,35.2,25.6,16.8,20.8,11.8,5.8,87,57,37,29.76,29.57,21,2,21,0.00
2013-3-16,37.1,29.8,23.9,24.9,16.1,9.1,90,58,33,29.86,29.58,18,2,18,0.00
2013-3-17,33.7,25.0,16.0,17.0,7.6,0.3,86,50,29,30.28,29.86,21,2,26,0.00
2013-3-18,36.7,25.2,12.3,21.1,9.3,1.1,73,53,25,30.41,30.25,14,1,14,0.00
2013-3-19,33.0,28.5,23.6,29.8,26.0,21.1,97,91,67,30.25,29.60,26,5,26,0.01
2013-3-20,34.7,28.0,21.1,32.1,26.2,19.9,96,93,87,29.69,29.57,15,2,15,0.31
2013-3-21,37.7,30.4,22.5,29.7,22.5,12.2,93,75,36,29.73,29.57,10,2,10,0.19
2013-3-22,38.4,29.6,19.8,25.5,20.1,17.1,94,69,45,29.61,29.55,13,1,13,0.00
2013-3-23,42.7,33.3,24.8,25.0,21.6,17.6,82,63,41,29.62,29.44,31,4,31,0.00
2013-3-24,47.0,36.3,26.0,27.4,25.2,23.2,89,66,41,29.74,29.61,9,2,18,0.00
2013-3-25,43.1,35.2,25.6,33.5,28.3,23.4,93,77,58,29.73,29.54,20,2,20,0.00
2013-3-26,49.9,40.0,32.1,28.2,25.9,23.0,77,58,38,29.69,29.51,18,2,18,0.00
2013-3-27,47.2,37.5,27.5,38.5,31.1,24.1,96,79,51,29.82,29.67,14,2,14,0.17
2013-3-28,50.4,40.6,32.9,38.0,34.4,30.6,97,80,48,29.93,29.82,12,1,12,0.01
2013-3-29,56.9,43.2,31.7,39.0,32.6,28.9,96,70,39,29.97,29.89,9,2,17,0.00
2013-3-30,55.5,40.6,29.9,34.0,29.3,16.9,93,69,23,30.04,29.93,13,2,15,0.00
2013-3-31,51.1,39.8,23.3,39.0,28.9,20.7,93,69,32,30.08,29.81,14,2,15,0.00